This is the latest recevied weather packets stored in our database for station/object KD8DLP-13. If no packets are shown the sender has not sent any weather packets the latest 10 day(s).
| Time | Temp. | Humidity | Pressure | Rain* | Wind** | Luminosity | Snow |
|---|---|---|---|---|---|---|---|
| 1777936778 | 23.33° C | 40% | 998 hPa | 0 mm | - | 46 W/m² | - |
| 1777936473 | 23.89° C | 39% | 997.7 hPa | 0 mm | - | 50 W/m² | - |
| 1777936170 | 23.89° C | 39% | 998 hPa | 0 mm | - | 59 W/m² | - |
| 1777935867 | 23.89° C | 39% | 998.2 hPa | 0 mm | - | 73 W/m² | - |
| 1777935566 | 23.89° C | 39% | 998.4 hPa | 0 mm | - | 91 W/m² | - |
| 1777935262 | 23.89° C | 39% | 998.4 hPa | 0 mm | - | 105 W/m² | - |
| 1777934960 | 23.33° C | 39% | 998.5 hPa | 0 mm | - | 102 W/m² | - |
| 1777934656 | 23.33° C | 39% | 998.7 hPa | 0 mm | - | 113 W/m² | - |
| 1777934353 | 23.33° C | 38% | 998.8 hPa | 0 mm | - | 146 W/m² | - |
| 1777934048 | 23.33° C | 38% | 998.9 hPa | 0 mm | - | 167 W/m² | - |
| 1777933745 | 23.89° C | 38% | 998.6 hPa | 0 mm | - | 139 W/m² | - |
| 1777933442 | 23.33° C | 38% | 998.9 hPa | 0 mm | - | 162 W/m² | - |
| 1777933140 | 23.89° C | 38% | 999.1 hPa | 0 mm | - | 167 W/m² | - |
| 1777932837 | 23.89° C | 38% | 999.1 hPa | 0 mm | - | 222 W/m² | - |
| 1777932534 | 23.89° C | 39% | 999 hPa | 0 mm | - | 230 W/m² | - |
| 1777932230 | 23.89° C | 39% | 998.9 hPa | 0 mm | - | 203 W/m² | - |
| 1777931928 | 23.89° C | 39% | 999.1 hPa | 0 mm | - | 192 W/m² | - |
| 1777931624 | 23.89° C | 38% | 999.3 hPa | 0 mm | - | 300 W/m² | - |
| 1777931320 | 23.33° C | 38% | 999.3 hPa | 0 mm | - | 289 W/m² | - |
| 1777931018 | 23.89° C | 38% | 999.2 hPa | 0 mm | - | 236 W/m² | - |
| 1777930714 | 23.89° C | 39% | 999.4 hPa | 0 mm | - | 225 W/m² | - |
| 1777930410 | 23.89° C | 39% | 999.2 hPa | 0 mm | - | 248 W/m² | - |
| 1777930107 | 23.89° C | 38% | 999.5 hPa | 0 mm | - | 267 W/m² | - |
| 1777929803 | 23.89° C | 40% | 999.4 hPa | 0 mm | - | 286 W/m² | - |
| 1777929502 | 23.89° C | 38% | 999.8 hPa | 0 mm | - | 285 W/m² | - |
* Rain latest hour (hover to see other rain measurements)
** Current wind speed in m/s (hover to see current wind gust speed)